Ypsilanti, MI

4:23 PM EDT on July 21, 2017 (GMT -0400)
Willow Run

Weather History for KYIP - November, 2013

Change the Weather History Date:

Thursday, November 7, 2013

  Actual Average Record
Temperature  
Mean Temperature 42 °F -  
Max Temperature 46 °F 49 °F 70 °F (1975)
Min Temperature 37 °F 35 °F 21 °F (1971)
Degree Days  
Heating Degree Days 24    
Moisture  
Dew Point 31 °F    
Average Humidity 64    
Maximum Humidity 81    
Minimum Humidity 41    
Precipitation  
Precipitation 0.01 in - - ()
Sea Level Pressure  
Sea Level Pressure 30.08 in    
Wind  
Wind Speed 12 mph (WNW)    
Max Wind Speed 24 mph    
Max Gust Speed 32 mph    
Visibility 10 miles    
Events Rain    
Averages and records for this station are not official NWS values.
T = Trace of Precipitation, MM = Missing Value Source: NWS Daily Summary

Daily Weather History Graph

Daily Weather History Graph

Search for Another Location

Airport or City:

Trip Planner

Search our weather history database for the weather conditions in past years. The results will help you decide how hot, cold, wet, or windy it might be!

Date:

Astronomy

Nov. 07, 2013 Rise Set
Actual Time 7:14 AM EST 5:20 PM EST
Civil Twilight 6:45 AM EST 5:49 PM EST
Nautical Twilight 6:11 AM EST 6:23 PM EST
Astronomical Twilight 5:39 AM EST 6:55 PM EST
Moon 11:23 AM EST (11/7) 9:29 PM EST (11/7)
Length of Visible Light 11h 04m
Length of Day
10h 05m
Waxing Crescent, 22% of the Moon is Illuminated
Nov 7
Waxing Crescent
Nov 10
First Quarter
Nov 17
Full
Nov 25
Last Quarter
Dec 2
New

Hourly Weather History & Observations

Time (EST) Temp. Windchill Dew Point Humidity Pressure Visibility Wind Dir Wind Speed Gust Speed Precip Events Conditions
12:03 AM 46.4 °F 41.9 °F 37.4 °F 71% 30.00 in 10.0 mi NW 9.2 mph - N/A   Overcast
12:16 AM 46.4 °F 41.1 °F 37.4 °F 71% 29.99 in 10.0 mi NW 11.5 mph - N/A   Mostly Cloudy
12:37 AM 44.6 °F 39.2 °F 37.4 °F 76% 29.99 in 10.0 mi WNW 10.4 mph - 0.00 in Rain Light Rain
12:53 AM 45.0 °F 40.1 °F 39.0 °F 80% 30.00 in 10.0 mi NW 9.2 mph - 0.00 in   Mostly Cloudy
1:01 AM 44.6 °F 39.2 °F 37.4 °F 76% 30.01 in 10.0 mi NW 10.4 mph - N/A   Mostly Cloudy
1:53 AM 45.0 °F 39.3 °F 37.9 °F 76% 30.01 in 10.0 mi WNW 11.5 mph 18.4 mph 0.00 in Rain Light Rain
2:29 AM 44.6 °F 39.7 °F 37.4 °F 76% 30.03 in 10.0 mi NW 9.2 mph - 0.00 in   Overcast
2:53 AM 44.1 °F 37.7 °F 37.0 °F 76% 30.04 in 10.0 mi WNW 12.7 mph - 0.00 in   Overcast
3:02 AM 44.6 °F 39.2 °F 37.4 °F 76% 30.03 in 10.0 mi WNW 10.4 mph - N/A   Overcast
3:53 AM 43.0 °F 38.8 °F 36.0 °F 76% 30.04 in 10.0 mi NW 6.9 mph - N/A   Overcast
4:53 AM 43.0 °F 38.2 °F 36.0 °F 76% 30.06 in 10.0 mi WNW 8.1 mph - N/A   Overcast
5:53 AM 43.0 °F 37.7 °F 35.1 °F 74% 30.07 in 10.0 mi WNW 9.2 mph - N/A   Overcast
6:53 AM 41.0 °F 34.3 °F 30.0 °F 65% 30.09 in 10.0 mi NW 11.5 mph - N/A   Overcast
7:53 AM 37.9 °F 30.9 °F 26.1 °F 62% 30.11 in 10.0 mi West 10.4 mph - N/A   Clear
8:53 AM 39.9 °F 32.1 °F 25.0 °F 55% 30.13 in 10.0 mi West 13.8 mph 23.0 mph N/A   Clear
9:53 AM 39.9 °F 31.8 °F 25.0 °F 55% 30.13 in 10.0 mi WNW 15.0 mph 27.6 mph N/A   Mostly Cloudy
10:53 AM 42.1 °F 33.9 °F 24.1 °F 49% 30.14 in 10.0 mi West 17.3 mph - N/A   Partly Cloudy
11:53 AM 46.0 °F 38.5 °F 25.0 °F 44% 30.14 in 10.0 mi West 19.6 mph 26.5 mph N/A   Mostly Cloudy
12:53 PM 46.9 °F - 25.0 °F 42% 30.12 in 10.0 mi West 24.2 mph 32.2 mph N/A   Mostly Cloudy
1:53 PM 46.9 °F - 24.1 °F 41% 30.11 in 10.0 mi NW 20.7 mph 27.6 mph N/A   Partly Cloudy
2:53 PM 46.0 °F 39.0 °F 26.1 °F 46% 30.10 in 10.0 mi West 17.3 mph - N/A   Scattered Clouds
3:53 PM 46.9 °F - 26.1 °F 44% 30.09 in 10.0 mi West 12.7 mph - N/A   Mostly Cloudy
4:53 PM 46.0 °F 39.0 °F 25.0 °F 44% 30.09 in 10.0 mi West 17.3 mph 21.9 mph N/A   Partly Cloudy
5:53 PM 46.0 °F 39.3 °F 26.1 °F 46% 30.10 in 10.0 mi WNW 16.1 mph 20.7 mph N/A   Overcast
6:53 PM 45.0 °F 39.3 °F 27.0 °F 49% 30.12 in 10.0 mi West 11.5 mph - N/A   Overcast
7:53 PM 44.1 °F 37.7 °F 28.9 °F 55% 30.12 in 10.0 mi WNW 12.7 mph - N/A   Overcast
8:53 PM 42.1 °F 36.1 °F 32.0 °F 67% 30.11 in 10.0 mi WNW 10.4 mph - 0.00 in   Overcast
9:14 PM 39.2 °F 30.2 °F 33.8 °F 81% 30.11 in 6.0 mi West 17.3 mph - 0.01 in Rain Light Rain
9:24 PM 39.2 °F 30.5 °F 33.8 °F 81% 30.11 in 10.0 mi West 16.1 mph - 0.01 in Rain Light Rain
9:53 PM 39.9 °F 32.5 °F 33.1 °F 77% 30.12 in 10.0 mi West 12.7 mph - 0.01 in   Overcast
10:53 PM 39.0 °F 32.8 °F 33.1 °F 79% 30.12 in 10.0 mi West 9.2 mph - N/A   Mostly Cloudy
11:53 PM 37.9 °F 30.0 °F 30.9 °F 76% 30.13 in 10.0 mi West 12.7 mph - N/A   Partly Cloudy